Renton, WA

7:12 AM PDT on August 20, 2017 (GMT -0700)
Renton Municipal

Weather History for KRNT - November, 2014

Change the Weather History Date:

Sunday, November 2, 2014

  Actual Average Record
Temperature  
Mean Temperature 52 °F -  
Max Temperature 57 °F 53 °F 64 °F (2010)
Min Temperature 46 °F 39 °F 28 °F (2002)
Degree Days  
Heating Degree Days 14    
Growing Degree Days 2 (Base 50)    
Moisture  
Dew Point 48 °F    
Average Humidity 93    
Maximum Humidity 97    
Minimum Humidity 67    
Precipitation  
Precipitation 0.11 in - - ()
Sea Level Pressure  
Sea Level Pressure 30.11 in    
Wind  
Wind Speed 3 mph (SE)    
Max Wind Speed 6 mph    
Max Gust Speed -    
Visibility 9 miles    
Events Rain    
Averages and records for this station are not official NWS values.
T = Trace of Precipitation, MM = Missing Value Source: NWS Daily Summary

Daily Weather History Graph

Daily Weather History Graph

Search for Another Location

Airport or City:

Trip Planner

Search our weather history database for the weather conditions in past years. The results will help you decide how hot, cold, wet, or windy it might be!

Date:

Astronomy

Nov. 02, 2014 Rise Set
Actual Time 6:54 AM PST 4:49 PM PST
Civil Twilight 6:22 AM PST 5:22 PM PST
Nautical Twilight 5:45 AM PST 5:58 PM PST
Astronomical Twilight 5:09 AM PST 6:34 PM PST
Moon 2:42 PM PST (11/2) 1:43 AM PST (11/2)
Length of Visible Light 11h 00m
Length of Day
9h 55m
Waxing Gibbous, 79% of the Moon is Illuminated
Nov 2
Waxing Gibbous
Nov 6
Full
Nov 14
Last Quarter
Nov 22
New
Nov 29
First Quarter

Hourly Weather History & Observations

Time (PST) Temp. Windchill Dew Point Humidity Pressure Visibility Wind Dir Wind Speed Gust Speed Precip Events Conditions
12:53 AM 46.9 °F - 46.0 °F 97% 30.08 in 9.0 mi Calm Calm - N/A   Mostly Cloudy
1:53 AM 46.0 °F 43.9 °F 45.0 °F 96% 30.09 in 9.0 mi SSE 4.6 mph - N/A   Mostly Cloudy
1:53 AM 46.0 °F 44.8 °F 45.0 °F 96% 30.11 in 10.0 mi ESE 3.5 mph - N/A   Mostly Cloudy
2:53 AM 46.9 °F - 45.0 °F 93% 30.12 in 10.0 mi Variable 3.5 mph - N/A   Overcast
3:24 AM 46.0 °F 44.8 °F 44.1 °F 93% 30.12 in 10.0 mi South 3.5 mph - N/A   Scattered Clouds
3:53 AM 46.0 °F - 45.0 °F 96% 30.14 in 10.0 mi Calm Calm - N/A   Mostly Cloudy
4:06 AM 46.0 °F 44.8 °F 45.0 °F 96% 30.12 in 10.0 mi South 3.5 mph - N/A   Mostly Cloudy
4:53 AM 46.9 °F - 46.0 °F 97% 30.15 in 10.0 mi Calm Calm - N/A   Overcast
5:45 AM 46.9 °F - 45.0 °F 93% 30.13 in 10.0 mi ESE 5.8 mph - N/A   Mostly Cloudy
5:53 AM 46.9 °F - 45.0 °F 93% 30.14 in 10.0 mi SE 3.5 mph - N/A   Overcast
6:25 AM 48.0 °F - 46.0 °F 93% 30.13 in 10.0 mi ESE 3.5 mph - N/A   Overcast
6:36 AM 46.9 °F - 46.0 °F 97% 30.12 in 10.0 mi SSE 3.5 mph - N/A   Mostly Cloudy
6:44 AM 46.9 °F - 45.0 °F 93% 30.13 in 10.0 mi South 3.5 mph - N/A   Mostly Cloudy
6:53 AM 46.9 °F - 46.0 °F 97% 30.15 in 10.0 mi SSE 4.6 mph - N/A   Mostly Cloudy
7:03 AM 46.9 °F - 46.0 °F 97% 30.13 in 10.0 mi SSE 4.6 mph - N/A   Overcast
7:25 AM 46.9 °F - 46.0 °F 97% 30.13 in 10.0 mi SE 3.5 mph - N/A   Scattered Clouds
7:53 AM 46.9 °F - 46.0 °F 97% 30.15 in 9.0 mi SSE 3.5 mph - N/A   Clear
8:53 AM 48.9 °F - 46.0 °F 90% 30.16 in 10.0 mi SSE 3.5 mph - N/A   Mostly Cloudy
9:53 AM 51.1 °F - 46.9 °F 86% 30.16 in 10.0 mi SSE 4.6 mph - N/A   Partly Cloudy
10:53 AM 55.0 °F - 46.9 °F 74% 30.15 in 10.0 mi South 4.6 mph - N/A   Mostly Cloudy
11:53 AM 55.9 °F - 46.0 °F 69% 30.14 in 10.0 mi South 4.6 mph - N/A   Overcast
12:53 PM 57.0 °F - 46.0 °F 67% 30.13 in 10.0 mi South 4.6 mph - N/A   Overcast
1:53 PM 55.0 °F - 50.0 °F 83% 30.12 in 7.0 mi Calm Calm - 0.01 in Rain Light Rain
2:53 PM 53.6 °F - 51.8 °F 94% 30.09 in 8.0 mi ESE 3.5 mph - N/A Rain Light Rain
3:11 PM 54.0 °F - 52.0 °F 93% 30.09 in 10.0 mi SE 3.5 mph - 0.00 in Rain Light Rain
3:40 PM 53.1 °F - 52.0 °F 96% 30.08 in 2.5 mi SE 3.5 mph - 0.01 in Rain Light Rain
3:47 PM 53.6 °F - 51.8 °F 94% 30.08 in 3.0 mi SE 4.6 mph - 0.02 in Rain Light Rain
3:53 PM 53.1 °F - 52.0 °F 96% 30.10 in 2.5 mi ESE 4.6 mph - 0.03 in Rain Light Rain
4:03 PM 53.1 °F - 52.0 °F 96% 30.08 in 4.0 mi East 4.6 mph - 0.01 in Rain Light Rain
4:53 PM 53.1 °F - 52.0 °F 96% 30.09 in 9.0 mi SSE 4.6 mph - 0.05 in Rain Light Rain
5:25 PM 52.0 °F - 51.1 °F 97% 30.07 in 10.0 mi East 5.8 mph - 0.01 in Rain Light Rain
5:53 PM 52.0 °F - 51.1 °F 97% 30.09 in 10.0 mi SSE 4.6 mph - 0.01 in   Overcast
6:53 PM 52.0 °F - 51.1 °F 97% 30.09 in 10.0 mi Variable 4.6 mph - 0.00 in Rain Light Rain
7:53 PM 53.1 °F - 51.1 °F 93% 30.10 in 8.0 mi SE 3.5 mph - 0.00 in Rain Light Rain
8:33 PM 52.0 °F - 51.1 °F 97% 30.08 in 10.0 mi SE 3.5 mph - 0.00 in   Overcast
8:53 PM 52.0 °F - 51.1 °F 97% 30.09 in 10.0 mi SE 4.6 mph - 0.00 in   Overcast
9:53 PM 53.1 °F - 51.1 °F 93% 30.09 in 10.0 mi ESE 3.5 mph - 0.00 in   Overcast
10:53 PM 53.1 °F - 51.1 °F 93% 30.09 in 10.0 mi SE 5.8 mph - 0.01 in Rain Light Rain